| time (UTC) | temp F | wind direction | speed knots | gust knots | rain 1hr in | rain 24hr in | rain mn in | humidity % | barometer mb |
| 20260906065242 | 85 | 292 | 1.7 | 3.5 | 0.00 | 0.00 | 0.00 | 40 | 1019.0 |
| 20260906065045 | 85 | 315 | 1.7 | 3.5 | 0.00 | 0.00 | 0.00 | 41 | 1018.9 |
| 20260906064841 | 85 | 338 | 1.7 | 3.5 | 0.00 | 0.00 | 0.00 | 41 | 1019.0 |
| 20260906064642 | 85 | 292 | 1.7 | 1.7 | 0.00 | 0.00 | 0.00 | 43 | 1019.1 |
| 20260906064442 | 84 | 292 | 1.7 | 3.5 | 0.00 | 0.00 | 0.00 | 42 | 1018.9 |
| 20260906064241 | 84 | 292 | 1.7 | 3.5 | 0.00 | 0.00 | 0.00 | 43 | 1018.9 |
| 20260906064056 | 84 | 315 | 1.7 | 1.7 | 0.00 | 0.00 | 0.00 | 43 | 1018.8 |
| 20260906063841 | 83 | 292 | 1.7 | 3.5 | 0.00 | 0.00 | 0.00 | 43 | 1018.8 |
| 20260906063641 | 83 | 315 | 1.7 | 1.7 | 0.00 | 0.00 | 0.00 | 44 | 1018.7 |
| 20260906063241 | 82 | 292 | 1.7 | 3.5 | 0.00 | 0.00 | 0.00 | 45 | 1018.8 |
| 20260906063054 | 82 | 315 | 2.6 | 3.5 | 0.00 | 0.00 | 0.00 | 45 | 1018.7 |
| 20260906062840 | 82 | 315 | 1.7 | 3.5 | 0.00 | 0.00 | 0.00 | 45 | 1018.8 |
| 20260906062646 | 82 | 315 | 1.7 | 3.5 | 0.00 | 0.00 | 0.00 | 45 | 1018.9 |
| 20260906062443 | 82 | 315 | 1.7 | 1.7 | 0.00 | 0.00 | 0.00 | 46 | 1018.9 |
| 20260906062242 | 81 | 292 | 1.7 | 1.7 | 0.00 | 0.00 | 0.00 | 45 | 1018.9 |
| 20260906061644 | 81 | 292 | 1.7 | 3.5 | 0.00 | 0.00 | 0.00 | 47 | 1018.8 |
| 20260906061241 | 80 | 315 | 2.6 | 3.5 | 0.00 | 0.00 | 0.00 | 47 | 1018.9 |
| 20260906061049 | 80 | 315 | 2.6 | 5.2 | 0.00 | 0.00 | 0.00 | 47 | 1018.8 |
| 20260906060842 | 80 | 315 | 2.6 | 5.2 | 0.00 | 0.00 | 0.00 | 47 | 1018.8 |
| 20260906060643 | 79 | 315 | 3.5 | 3.5 | 0.00 | 0.00 | 0.00 | 48 | 1018.9 |
| 20260906060443 | 79 | 292 | 2.6 | 3.5 | 0.00 | 0.00 | 0.00 | 48 | 1018.8 |
| 20260906060247 | 79 | 315 | 2.6 | 5.2 | 0.00 | 0.00 | 0.00 | 48 | 1018.9 |
| 20260906055641 | 78 | 270 | 2.6 | 3.5 | 0.00 | 0.00 | 0.00 | 49 | 1018.8 |
| 20260906055441 | 78 | 315 | 1.7 | 3.5 | 0.00 | 0.00 | 0.00 | 49 | 1019.0 |
| 20260906055241 | 78 | 338 | 2.6 | 3.5 | 0.00 | 0.00 | 0.00 | 49 | 1018.8 |
| 20260906055045 | 77 | 338 | 1.7 | 3.5 | 0.00 | 0.00 | 0.00 | 51 | 1018.8 |
| 20260906054843 | 77 | 292 | 1.7 | 3.5 | 0.00 | 0.00 | 0.00 | 52 | 1018.8 |
| 20260906054649 | 76 | 292 | 1.7 | 3.5 | 0.00 | 0.00 | 0.00 | 52 | 1018.8 |
| 20260906054242 | 76 | 315 | 1.7 | 3.5 | 0.00 | 0.00 | 0.00 | 55 | 1018.8 |
| 20260906054058 | 75 | 315 | 1.7 | 3.5 | 0.00 | 0.00 | 0.00 | 56 | 1018.7 |
| 20260906053841 | 75 | 315 | 1.7 | 1.7 | 0.00 | 0.00 | 0.00 | 58 | 1018.7 |
| 20260906053242 | 73 | 315 | 1.7 | 3.5 | 0.00 | 0.00 | 0.00 | 60 | 1018.6 |
| 20260906053047 | 73 | 338 | 1.7 | 1.7 | 0.00 | 0.00 | 0.00 | 60 | 1018.7 |
| 20260906052841 | 73 | 315 | 0.9 | 1.7 | 0.00 | 0.00 | 0.00 | 61 | 1018.8 |
| 20260906052641 | 73 | 270 | 0.9 | 1.7 | 0.00 | 0.00 | 0.00 | 62 | 1018.8 |
| 20260906052046 | 72 | 315 | 0.0 | 1.7 | 0.00 | 0.00 | 0.00 | 63 | 1018.5 |
| 20260906051641 | 71 | 0 | 0.0 | 0.0 | 0.00 | 0.00 | 0.00 | 64 | 1018.5 |
| 20260906051442 | 71 | 315 | 0.0 | 0.0 | 0.00 | 0.00 | 0.00 | 65 | 1018.5 |
| 20260906051241 | 70 | 315 | 0.9 | 1.7 | 0.00 | 0.00 | 0.00 | 66 | 1018.6 |
| 20260906050841 | 70 | 292 | 0.0 | 0.0 | 0.00 | 0.00 | 0.00 | 67 | 1018.5 |
| 20260906050641 | 70 | 292 | 0.0 | 0.0 | 0.00 | 0.00 | 0.00 | 67 | 1018.5 |
| 20260906050443 | 70 | 315 | 0.0 | 1.7 | 0.00 | 0.00 | 0.00 | 67 | 1018.4 |
| 20260906050243 | 70 | 315 | 0.0 | 0.0 | 0.00 | 0.00 | 0.00 | 67 | 1018.6 |
| 20260906050058 | 70 | 0 | 0.0 | 1.7 | 0.00 | 0.00 | 0.00 | 67 | 1018.5 |
| 20260906045841 | 70 | 338 | 0.0 | 0.0 | 0.00 | 0.00 | 0.00 | 68 | 1018.4 |
| 20260906045641 | 70 | 338 | 0.0 | 0.0 | 0.00 | 0.00 | 0.00 | 68 | 1018.3 |
| 20260906045443 | 69 | 22 | 0.9 | 1.7 | 0.00 | 0.00 | 0.00 | 68 | 1018.5 |
| 20260906045046 | 69 | 315 | 0.0 | 0.0 | 0.00 | 0.00 | 0.00 | 68 | 1018.3 |
| 20260906044842 | 69 | 292 | 0.0 | 1.7 | 0.00 | 0.00 | 0.00 | 69 | 1018.4 |
| 20260906044648 | 69 | 338 | 0.0 | 0.0 | 0.00 | 0.00 | 0.00 | 69 | 1018.3 |
| 20260906044443 | 69 | 45 | 0.0 | 1.7 | 0.00 | 0.00 | 0.00 | 69 | 1018.6 |
| 20260906044241 | 69 | 338 | 0.0 | 1.7 | 0.00 | 0.00 | 0.00 | 69 | 1018.4 |
| 20260906044048 | 69 | 338 | 0.9 | 1.7 | 0.00 | 0.00 | 0.00 | 68 | 1018.4 |
| 20260906043641 | 70 | 338 | 0.9 | 1.7 | 0.00 | 0.00 | 0.00 | 68 | 1018.1 |
| 20260906043502 | 70 | 338 | 0.9 | 1.7 | 0.00 | 0.00 | 0.00 | 67 | 1018.3 |
| 20260906043241 | 71 | 338 | 0.9 | 1.7 | 0.00 | 0.00 | 0.00 | 67 | 1018.3 |
| 20260906042641 | 71 | 315 | 0.0 | 0.0 | 0.00 | 0.00 | 0.00 | 64 | 1018.3 |
| 20260906042444 | 71 | 315 | 0.0 | 1.7 | 0.00 | 0.00 | 0.00 | 63 | 1018.4 |
| 20260906042241 | 72 | 338 | 0.0 | 0.0 | 0.00 | 0.00 | 0.00 | 63 | 1018.3 |
| 20260906041842 | 71 | 338 | 0.0 | 1.7 | 0.00 | 0.00 | 0.00 | 63 | 1018.3 |
| 20260906041341 | 71 | 315 | 0.0 | 1.7 | 0.00 | 0.00 | 0.00 | 64 | 1018.1 |
| 20260906040741 | 72 | 292 | 0.0 | 0.0 | 0.00 | 0.00 | 0.00 | 65 | 1018.1 |
| 20260906040341 | 72 | 315 | 0.9 | 1.7 | 0.00 | 0.00 | 0.00 | 64 | 1018.3 |
| 20260906040142 | 72 | 292 | 0.9 | 1.7 | 0.00 | 0.00 | 0.00 | 64 | 1018.0 |
| 20260906035943 | 72 | 292 | 1.7 | 1.7 | 0.00 | 0.00 | 0.00 | 64 | 1018.2 |
| 20260906035742 | 72 | 270 | 0.0 | 0.0 | 0.00 | 0.00 | 0.00 | 65 | 1018.1 |
| 20260906035548 | 73 | 292 | 0.0 | 1.7 | 0.00 | 0.00 | 0.00 | 65 | 1018.2 |
| 20260906035342 | 73 | 292 | 0.9 | 1.7 | 0.00 | 0.00 | 0.00 | 64 | 1018.1 |
| 20260906035142 | 74 | 292 | 1.7 | 1.7 | 0.00 | 0.00 | 0.00 | 63 | 1018.1 |
| 20260906034942 | 74 | 292 | 1.7 | 1.7 | 0.00 | 0.00 | 0.00 | 62 | 1018.0 |
| 20260906034743 | 74 | 270 | 1.7 | 1.7 | 0.00 | 0.00 | 0.00 | 61 | 1018.0 |
| 20260906034555 | 74 | 270 | 1.7 | 1.7 | 0.00 | 0.00 | 0.00 | 61 | 1017.9 |
| 20260906034341 | 74 | 270 | 1.7 | 1.7 | 0.00 | 0.00 | 0.00 | 61 | 1018.1 |
| 20260906034143 | 74 | 270 | 1.7 | 3.5 | 0.00 | 0.00 | 0.00 | 60 | 1018.0 |
| 20260906033944 | 74 | 270 | 2.6 | 3.5 | 0.00 | 0.00 | 0.00 | 60 | 1017.9 |
| 20260906033743 | 74 | 270 | 1.7 | 3.5 | 0.00 | 0.00 | 0.00 | 61 | 1018.0 |
| 20260906033342 | 74 | 292 | 1.7 | 3.5 | 0.00 | 0.00 | 0.00 | 62 | 1017.9 |
| 20260906033141 | 74 | 292 | 1.7 | 3.5 | 0.00 | 0.00 | 0.00 | 63 | 1017.8 |
| 20260906032943 | 74 | 292 | 1.7 | 3.5 | 0.00 | 0.00 | 0.00 | 62 | 1017.9 |
| 20260906032549 | 74 | 270 | 2.6 | 3.5 | 0.00 | 0.00 | 0.00 | 62 | 1017.8 |
| 20260906032142 | 74 | 270 | 2.6 | 3.5 | 0.00 | 0.00 | 0.00 | 61 | 1017.7 |
| 20260906031945 | 74 | 248 | 3.5 | 3.5 | 0.00 | 0.00 | 0.00 | 61 | 1017.7 |
| 20260906031741 | 75 | 270 | 2.6 | 3.5 | 0.00 | 0.00 | 0.00 | 61 | 1017.6 |
| 20260906031549 | 75 | 270 | 3.5 | 3.5 | 0.00 | 0.00 | 0.00 | 60 | 1017.7 |
| 20260906031341 | 74 | 270 | 2.6 | 3.5 | 0.00 | 0.00 | 0.00 | 61 | 1017.6 |
| 20260906030945 | 74 | 248 | 2.6 | 3.5 | 0.00 | 0.00 | 0.00 | 62 | 1017.7 |
| 20260906030741 | 73 | 270 | 2.6 | 3.5 | 0.00 | 0.00 | 0.00 | 62 | 1017.7 |
| 20260906030544 | 73 | 270 | 1.7 | 1.7 | 0.00 | 0.00 | 0.00 | 63 | 1017.8 |
| 20260906030341 | 73 | 248 | 0.0 | 0.0 | 0.00 | 0.00 | 0.00 | 65 | 1017.6 |
| 20260906030146 | 73 | 180 | 0.0 | 0.0 | 0.00 | 0.00 | 0.00 | 64 | 1017.5 |
| 20260906025941 | 73 | 225 | 0.0 | 0.0 | 0.00 | 0.00 | 0.00 | 64 | 1017.9 |
| 20260906025741 | 74 | 270 | 0.0 | 0.0 | 0.00 | 0.00 | 0.00 | 63 | 1017.9 |
| 20260906025342 | 74 | 292 | 0.0 | 0.0 | 0.00 | 0.00 | 0.00 | 64 | 1017.9 |
| 20260906025143 | 74 | 338 | 0.0 | 0.0 | 0.00 | 0.00 | 0.00 | 64 | 1018.0 |
| 20260906024743 | 74 | 292 | 0.9 | 3.5 | 0.00 | 0.00 | 0.00 | 62 | 1017.7 |
| 20260906024547 | 74 | 270 | 0.0 | 1.7 | 0.00 | 0.00 | 0.00 | 63 | 1017.9 |
| 20260906024341 | 74 | 270 | 0.0 | 0.0 | 0.00 | 0.00 | 0.00 | 64 | 1017.7 |
| 20260906023943 | 74 | 270 | 0.9 | 1.7 | 0.00 | 0.00 | 0.00 | 63 | 1017.7 |
| 20260906023742 | 74 | 292 | 0.0 | 0.0 | 0.00 | 0.00 | 0.00 | 64 | 1017.8 |
| 20260906023549 | 74 | 292 | 0.0 | 0.0 | 0.00 | 0.00 | 0.00 | 64 | 1017.8 |
| 20260906023342 | 74 | 292 | 0.0 | 1.7 | 0.00 | 0.00 | 0.00 | 64 | 1017.7 |
| 20260906023143 | 74 | 292 | 0.0 | 0.0 | 0.00 | 0.00 | 0.00 | 64 | 1017.8 |
| 20260906022741 | 74 | 292 | 0.0 | 1.7 | 0.00 | 0.00 | 0.00 | 64 | 1017.9 |
| 20260906022341 | 74 | 292 | 1.7 | 1.7 | 0.00 | 0.00 | 0.00 | 64 | 1017.8 |
| 20260906022142 | 74 | 292 | 1.7 | 1.7 | 0.00 | 0.00 | 0.00 | 66 | 1017.8 |
| 20260906021941 | 74 | 315 | 0.9 | 1.7 | 0.00 | 0.00 | 0.00 | 65 | 1017.9 |
| 20260906021743 | 74 | 315 | 0.9 | 1.7 | 0.00 | 0.00 | 0.00 | 67 | 1018.1 |
| 20260906021546 | 73 | 292 | 0.0 | 1.7 | 0.00 | 0.00 | 0.00 | 68 | 1018.0 |
| 20260906021342 | 73 | 292 | 0.9 | 1.7 | 0.00 | 0.00 | 0.00 | 68 | 1017.8 |
| 20260906021143 | 73 | 248 | 0.0 | 1.7 | 0.00 | 0.00 | 0.00 | 69 | 1017.8 |
| 20260906020942 | 73 | 0 | 0.0 | 0.0 | 0.00 | 0.00 | 0.00 | 69 | 1017.9 |
| 20260906020741 | 73 | 338 | 0.0 | 0.0 | 0.00 | 0.00 | 0.00 | 69 | 1018.1 |
| 20260906020544 | 73 | 292 | 0.0 | 0.0 | 0.00 | 0.00 | 0.00 | 69 | 1018.0 |
| 20260906020341 | 73 | 202 | 0.0 | 0.0 | 0.00 | 0.00 | 0.00 | 69 | 1017.9 |
| 20260906020145 | 73 | 315 | 0.0 | 0.0 | 0.00 | 0.00 | 0.00 | 69 | 1017.9 |
| 20260906015942 | 73 | 0 | 0.0 | 0.0 | 0.00 | 0.00 | 0.00 | 69 | 1018.0 |
| 20260906015547 | 74 | 202 | 0.0 | 1.7 | 0.00 | 0.00 | 0.00 | 69 | 1017.9 |
| 20260906014942 | 74 | 292 | 0.0 | 0.0 | 0.00 | 0.00 | 0.00 | 69 | 1017.9 |
| 20260906014742 | 74 | 315 | 0.0 | 1.7 | 0.00 | 0.00 | 0.00 | 69 | 1017.9 |
| 20260906014547 | 74 | 292 | 1.7 | 3.5 | 0.00 | 0.00 | 0.00 | 69 | 1018.0 |
| 20260906014341 | 74 | 292 | 2.6 | 3.5 | 0.00 | 0.00 | 0.00 | 69 | 1018.0 |
| 20260906014141 | 74 | 270 | 3.5 | 5.2 | 0.00 | 0.00 | 0.00 | 69 | 1017.9 |
| 20260906013943 | 74 | 270 | 4.3 | 6.1 | 0.00 | 0.00 | 0.00 | 70 | 1017.7 |
| 20260906013741 | 74 | 248 | 3.5 | 5.2 | 0.00 | 0.00 | 0.00 | 70 | 1017.9 |
| 20260906013545 | 74 | 292 | 3.5 | 5.2 | 0.00 | 0.00 | 0.00 | 70 | 1018.0 |
| 20260906013340 | 74 | 270 | 3.5 | 3.5 | 0.00 | 0.00 | 0.00 | 69 | 1017.9 |
| 20260906013143 | 74 | 248 | 3.5 | 3.5 | 0.00 | 0.00 | 0.00 | 69 | 1018.1 |
| 20260906012942 | 75 | 270 | 1.7 | 3.5 | 0.00 | 0.00 | 0.00 | 68 | 1017.9 |
| 20260906012741 | 75 | 270 | 1.7 | 3.5 | 0.00 | 0.00 | 0.00 | 68 | 1017.8 |
| 20260906012548 | 75 | 292 | 2.6 | 3.5 | 0.00 | 0.00 | 0.00 | 67 | 1018.1 |
| 20260906012340 | 75 | 292 | 1.7 | 3.5 | 0.00 | 0.00 | 0.00 | 66 | 1018.1 |
| 20260906012142 | 76 | 292 | 2.6 | 3.5 | 0.00 | 0.00 | 0.00 | 66 | 1017.9 |
| 20260906011940 | 76 | 292 | 2.6 | 3.5 | 0.00 | 0.00 | 0.00 | 65 | 1017.9 |
| 20260906011742 | 75 | 292 | 2.6 | 3.5 | 0.00 | 0.00 | 0.00 | 65 | 1018.0 |
| 20260906011554 | 75 | 292 | 3.5 | 3.5 | 0.00 | 0.00 | 0.00 | 66 | 1018.0 |
| 20260906011342 | 75 | 292 | 2.6 | 3.5 | 0.00 | 0.00 | 0.00 | 66 | 1018.1 |
| 20260906011141 | 74 | 292 | 3.5 | 3.5 | 0.00 | 0.00 | 0.00 | 67 | 1018.1 |
| 20260906010945 | 74 | 292 | 3.5 | 3.5 | 0.00 | 0.00 | 0.00 | 68 | 1018.2 |
| 20260906010741 | 74 | 292 | 2.6 | 3.5 | 0.00 | 0.00 | 0.00 | 68 | 1018.2 |
| 20260906010545 | 74 | 292 | 2.6 | 3.5 | 0.00 | 0.00 | 0.00 | 69 | 1018.2 |
| 20260906010341 | 73 | 292 | 1.7 | 3.5 | 0.00 | 0.00 | 0.00 | 69 | 1018.0 |
| 20260906005742 | 73 | 292 | 1.7 | 3.5 | 0.00 | 0.00 | 0.00 | 69 | 1017.9 |
| 20260906005547 | 73 | 270 | 2.6 | 3.5 | 0.00 | 0.00 | 0.00 | 69 | 1018.2 |
| 20260906005342 | 73 | 292 | 1.7 | 1.7 | 0.00 | 0.00 | 0.00 | 69 | 1018.1 |
| 20260906004941 | 73 | 292 | 1.7 | 3.5 | 0.00 | 0.00 | 0.00 | 69 | 1018.2 |
| 20260906004741 | 73 | 315 | 1.7 | 1.7 | 0.00 | 0.00 | 0.00 | 69 | 1018.1 |
| 20260906004340 | 74 | 292 | 0.9 | 1.7 | 0.00 | 0.00 | 0.00 | 69 | 1018.1 |
| 20260906004144 | 74 | 315 | 0.9 | 1.7 | 0.00 | 0.00 | 0.00 | 69 | 1018.0 |
| 20260906003944 | 74 | 292 | 0.9 | 1.7 | 0.00 | 0.00 | 0.00 | 69 | 1018.2 |
| 20260906003741 | 74 | 315 | 0.9 | 1.7 | 0.00 | 0.00 | 0.00 | 68 | 1018.2 |
| 20260906003545 | 74 | 315 | 0.9 | 1.7 | 0.00 | 0.00 | 0.00 | 68 | 1018.0 |
| 20260906003343 | 74 | 292 | 1.7 | 3.5 | 0.00 | 0.00 | 0.00 | 67 | 1017.9 |
| 20260906003142 | 75 | 338 | 1.7 | 1.7 | 0.00 | 0.00 | 0.00 | 67 | 1017.9 |
| 20260906002943 | 75 | 292 | 1.7 | 1.7 | 0.00 | 0.00 | 0.00 | 66 | 1017.9 |
| 20260906002742 | 75 | 292 | 1.7 | 1.7 | 0.00 | 0.00 | 0.00 | 66 | 1018.0 |
| 20260906002557 | 75 | 315 | 1.7 | 3.5 | 0.00 | 0.00 | 0.00 | 66 | 1017.9 |
| 20260906002147 | 75 | 292 | 1.7 | 3.5 | 0.00 | 0.00 | 0.00 | 66 | 1018.0 |
| 20260906001743 | 74 | 315 | 1.7 | 3.5 | 0.00 | 0.00 | 0.00 | 65 | 1018.0 |
| 20260906001552 | 75 | 315 | 1.7 | 1.7 | 0.00 | 0.00 | 0.00 | 65 | 1017.9 |
| 20260906001341 | 75 | 315 | 1.7 | 1.7 | 0.00 | 0.00 | 0.00 | 64 | 1017.9 |
| 20260906000944 | 75 | 315 | 1.7 | 1.7 | 0.00 | 0.00 | 0.00 | 65 | 1018.0 |
| 20260906000741 | 75 | 315 | 0.9 | 1.7 | 0.00 | 0.00 | 0.00 | 64 | 1017.9 |
| 20260906000546 | 75 | 315 | 0.9 | 1.7 | 0.00 | 0.00 | 0.00 | 64 | 1017.9 |
| 20260906000341 | 75 | 315 | 0.9 | 1.7 | 0.00 | 0.00 | 0.00 | 64 | 1018.2 |
| 20260906000143 | 75 | 315 | 0.9 | 1.7 | 0.00 | 0.00 | 0.00 | 64 | 1018.1 |
| 20260905235943 | 75 | 292 | 0.0 | 1.7 | 0.00 | 0.00 | 0.00 | 64 | 1018.2 |
| 20260905235741 | 75 | 315 | 0.9 | 1.7 | 0.00 | 0.00 | 0.00 | 63 | 1018.2 |
| 20260905235547 | 75 | 315 | 0.9 | 1.7 | 0.00 | 0.00 | 0.00 | 63 | 1018.2 |
| 20260905235342 | 75 | 315 | 1.7 | 1.7 | 0.00 | 0.00 | 0.00 | 63 | 1018.0 |
| 20260905235142 | 75 | 315 | 1.7 | 1.7 | 0.00 | 0.00 | 0.00 | 63 | 1018.1 |
| 20260905234942 | 75 | 315 | 0.9 | 1.7 | 0.00 | 0.00 | 0.00 | 63 | 1018.1 |
| 20260905234742 | 75 | 315 | 1.7 | 1.7 | 0.00 | 0.00 | 0.00 | 63 | 1018.1 |
| 20260905234342 | 75 | 292 | 0.9 | 1.7 | 0.00 | 0.00 | 0.00 | 64 | 1018.1 |
| 20260905234143 | 75 | 315 | 0.9 | 1.7 | 0.00 | 0.00 | 0.00 | 64 | 1018.3 |
| 20260905233957 | 75 | 315 | 1.7 | 1.7 | 0.00 | 0.00 | 0.00 | 64 | 1017.9 |
| 20260905233741 | 75 | 292 | 0.9 | 1.7 | 0.00 | 0.00 | 0.00 | 63 | 1018.0 |
| 20260905233545 | 75 | 292 | 0.0 | 1.7 | 0.00 | 0.00 | 0.00 | 62 | 1018.0 |
| 20260905233341 | 76 | 292 | 0.9 | 1.7 | 0.00 | 0.00 | 0.00 | 62 | 1018.0 |
| 20260905233141 | 76 | 292 | 0.9 | 1.7 | 0.00 | 0.00 | 0.00 | 62 | 1018.2 |
| 20260905232943 | 76 | 315 | 1.7 | 1.7 | 0.00 | 0.00 | 0.00 | 61 | 1017.9 |
| 20260905232743 | 76 | 315 | 0.9 | 1.7 | 0.00 | 0.00 | 0.00 | 62 | 1018.2 |
| 20260905232547 | 76 | 292 | 1.7 | 1.7 | 0.00 | 0.00 | 0.00 | 61 | 1018.1 |
| 20260905232341 | 76 | 292 | 1.7 | 3.5 | 0.00 | 0.00 | 0.00 | 62 | 1017.9 |
| 20260905232141 | 76 | 292 | 2.6 | 3.5 | 0.00 | 0.00 | 0.00 | 62 | 1018.2 |
| 20260905231946 | 76 | 292 | 1.7 | 3.5 | 0.00 | 0.00 | 0.00 | 62 | 1018.0 |
| 20260905231742 | 76 | 292 | 1.7 | 3.5 | 0.00 | 0.00 | 0.00 | 62 | 1018.3 |
| 20260905231556 | 76 | 270 | 2.6 | 3.5 | 0.00 | 0.00 | 0.00 | 63 | 1018.2 |
| 20260905231343 | 76 | 292 | 2.6 | 3.5 | 0.00 | 0.00 | 0.00 | 63 | 1018.1 |
| 20260905231143 | 76 | 292 | 1.7 | 3.5 | 0.00 | 0.00 | 0.00 | 63 | 1018.2 |
| 20260905230946 | 76 | 292 | 1.7 | 1.7 | 0.00 | 0.00 | 0.00 | 64 | 1018.2 |
| 20260905230741 | 76 | 292 | 0.9 | 1.7 | 0.00 | 0.00 | 0.00 | 65 | 1018.1 |
| 20260905230544 | 75 | 292 | 1.7 | 1.7 | 0.00 | 0.00 | 0.00 | 65 | 1018.3 |
| 20260905230342 | 75 | 292 | 1.7 | 1.7 | 0.00 | 0.00 | 0.00 | 66 | 1018.3 |
| 20260905230143 | 75 | 292 | 1.7 | 1.7 | 0.00 | 0.00 | 0.00 | 66 | 1018.1 |
| 20260905225944 | 75 | 292 | 1.7 | 1.7 | 0.00 | 0.00 | 0.00 | 67 | 1018.1 |
| 20260905225742 | 76 | 292 | 1.7 | 1.7 | 0.00 | 0.00 | 0.00 | 67 | 1018.1 |
| 20260905225548 | 76 | 315 | 1.7 | 1.7 | 0.00 | 0.00 | 0.00 | 67 | 1018.3 |
| 20260905225342 | 76 | 292 | 1.7 | 1.7 | 0.00 | 0.00 | 0.00 | 66 | 1018.3 |
| 20260905225142 | 76 | 270 | 1.7 | 1.7 | 0.00 | 0.00 | 0.00 | 66 | 1018.2 |
| 20260905224741 | 76 | 270 | 1.7 | 1.7 | 0.00 | 0.00 | 0.00 | 66 | 1018.2 |
| 20260905224550 | 76 | 292 | 1.7 | 1.7 | 0.00 | 0.00 | 0.00 | 65 | 1018.4 |
| 20260905224342 | 76 | 292 | 1.7 | 1.7 | 0.00 | 0.00 | 0.00 | 65 | 1018.4 |
| 20260905224143 | 76 | 292 | 1.7 | 1.7 | 0.00 | 0.00 | 0.00 | 64 | 1018.2 |
| 20260905223943 | 76 | 292 | 1.7 | 1.7 | 0.00 | 0.00 | 0.00 | 63 | 1018.3 |
| 20260905223741 | 76 | 292 | 1.7 | 1.7 | 0.00 | 0.00 | 0.00 | 62 | 1018.4 |
| 20260905223341 | 76 | 292 | 1.7 | 1.7 | 0.00 | 0.00 | 0.00 | 58 | 1018.5 |
| 20260905222941 | 76 | 270 | 1.7 | 3.5 | 0.00 | 0.00 | 0.00 | 57 | 1018.2 |
| 20260905222743 | 76 | 292 | 1.7 | 1.7 | 0.00 | 0.00 | 0.00 | 58 | 1018.2 |
| 20260905222549 | 76 | 292 | 1.7 | 1.7 | 0.00 | 0.00 | 0.00 | 58 | 1018.5 |
| 20260905222341 | 77 | 292 | 0.9 | 1.7 | 0.00 | 0.00 | 0.00 | 58 | 1018.6 |
| 20260905222142 | 77 | 315 | 1.7 | 3.5 | 0.00 | 0.00 | 0.00 | 57 | 1018.4 |
| 20260905221941 | 77 | 292 | 1.7 | 3.5 | 0.00 | 0.00 | 0.00 | 57 | 1018.5 |
| 20260905221743 | 77 | 292 | 1.7 | 1.7 | 0.00 | 0.00 | 0.00 | 56 | 1018.4 |
| 20260905221552 | 77 | 315 | 1.7 | 1.7 | 0.00 | 0.00 | 0.00 | 57 | 1018.3 |
| 20260905221342 | 77 | 315 | 1.7 | 1.7 | 0.00 | 0.00 | 0.00 | 57 | 1018.6 |
| 20260905221152 | 77 | 315 | 1.7 | 1.7 | 0.00 | 0.00 | 0.00 | 58 | 1018.3 |
| 20260905220945 | 77 | 292 | 1.7 | 1.7 | 0.00 | 0.00 | 0.00 | 60 | 1018.3 |
| 20260905220742 | 77 | 315 | 1.7 | 1.7 | 0.00 | 0.00 | 0.00 | 60 | 1018.5 |
| 20260905220342 | 77 | 315 | 1.7 | 1.7 | 0.00 | 0.00 | 0.00 | 59 | 1018.4 |
| 20260905220156 | 76 | 292 | 1.7 | 1.7 | 0.00 | 0.00 | 0.00 | 62 | 1018.2 |
| 20260905215942 | 76 | 315 | 0.9 | 1.7 | 0.00 | 0.00 | 0.00 | 65 | 1018.1 |
| 20260905215743 | 76 | 315 | 1.7 | 1.7 | 0.00 | 0.00 | 0.00 | 65 | 1018.1 |
| 20260905215548 | 76 | 292 | 0.9 | 1.7 | 0.00 | 0.00 | 0.00 | 66 | 1018.1 |
| 20260905215342 | 76 | 315 | 0.9 | 1.7 | 0.00 | 0.00 | 0.00 | 68 | 1018.3 |
| 20260905215142 | 76 | 315 | 0.0 | 0.0 | 0.00 | 0.00 | 0.00 | 68 | 1018.1 |
| 20260905214942 | 77 | 292 | 0.0 | 0.0 | 0.00 | 0.00 | 0.00 | 70 | 1018.0 |
| 20260905214743 | 77 | 315 | 0.0 | 0.0 | 0.00 | 0.00 | 0.00 | 70 | 1018.0 |
| 20260905214551 | 77 | 315 | 0.0 | 0.0 | 0.00 | 0.00 | 0.00 | 70 | 1018.2 |
| 20260905214341 | 78 | 315 | 0.0 | 0.0 | 0.00 | 0.00 | 0.00 | 70 | 1018.2 |
| 20260905214142 | 78 | 292 | 0.0 | 0.0 | 0.00 | 0.00 | 0.00 | 70 | 1018.0 |
| 20260905213944 | 78 | 292 | 0.0 | 0.0 | 0.00 | 0.00 | 0.00 | 70 | 1018.3 |
| 20260905213545 | 78 | 292 | 0.0 | 0.0 | 0.00 | 0.00 | 0.00 | 69 | 1018.2 |
| 20260905213341 | 79 | 270 | 0.9 | 1.7 | 0.00 | 0.00 | 0.00 | 69 | 1018.1 |
| 20260905213142 | 79 | 0 | 0.0 | 1.7 | 0.00 | 0.00 | 0.00 | 69 | 1017.9 |
| 20260905212942 | 79 | 292 | 0.0 | 0.0 | 0.00 | 0.00 | 0.00 | 69 | 1018.0 |
| 20260905212743 | 79 | 315 | 0.0 | 1.7 | 0.00 | 0.00 | 0.00 | 69 | 1018.0 |
| 20260905212556 | 80 | 292 | 0.0 | 1.7 | 0.00 | 0.00 | 0.00 | 68 | 1018.1 |
| 20260905212343 | 80 | 292 | 1.7 | 1.7 | 0.00 | 0.00 | 0.00 | 68 | 1018.0 |
| 20260905212142 | 80 | 292 | 1.7 | 1.7 | 0.00 | 0.00 | 0.00 | 67 | 1018.0 |
| 20260905211941 | 81 | 315 | 1.7 | 3.5 | 0.00 | 0.00 | 0.00 | 67 | 1018.0 |
| 20260905211742 | 81 | 270 | 1.7 | 1.7 | 0.00 | 0.00 | 0.00 | 66 | 1018.2 |
| 20260905211548 | 81 | 292 | 1.7 | 1.7 | 0.00 | 0.00 | 0.00 | 66 | 1018.2 |
| 20260905211343 | 81 | 292 | 1.7 | 3.5 | 0.00 | 0.00 | 0.00 | 65 | 1017.9 |
| 20260905211142 | 82 | 292 | 1.7 | 1.7 | 0.00 | 0.00 | 0.00 | 65 | 1018.1 |
| 20260905210944 | 82 | 292 | 1.7 | 3.5 | 0.00 | 0.00 | 0.00 | 65 | 1018.2 |
| 20260905210742 | 82 | 292 | 1.7 | 3.5 | 0.00 | 0.00 | 0.00 | 65 | 1018.0 |
| 20260905210546 | 82 | 292 | 2.6 | 3.5 | 0.00 | 0.00 | 0.00 | 64 | 1018.0 |
| 20260905210342 | 82 | 292 | 1.7 | 1.7 | 0.00 | 0.00 | 0.00 | 64 | 1017.9 |
| 20260905205940 | 82 | 248 | 1.7 | 3.5 | 0.00 | 0.00 | 0.00 | 64 | 1017.8 |
| 20260905205743 | 82 | 270 | 2.6 | 5.2 | 0.00 | 0.00 | 0.00 | 63 | 1017.9 |
| 20260905205549 | 82 | 248 | 3.5 | 3.5 | 0.00 | 0.00 | 0.00 | 63 | 1017.9 |
| 20260905205141 | 83 | 248 | 2.6 | 3.5 | 0.00 | 0.00 | 0.00 | 63 | 1018.0 |
| 20260905204942 | 83 | 270 | 3.5 | 5.2 | 0.00 | 0.00 | 0.00 | 63 | 1017.9 |
| 20260905204547 | 83 | 270 | 3.5 | 5.2 | 0.00 | 0.00 | 0.00 | 63 | 1017.9 |
| 20260905204343 | 83 | 270 | 4.3 | 6.1 | 0.00 | 0.00 | 0.00 | 63 | 1017.8 |
| 20260905204142 | 83 | 270 | 3.5 | 3.5 | 0.00 | 0.00 | 0.00 | 63 | 1018.0 |
| 20260905203945 | 83 | 248 | 3.5 | 5.2 | 0.00 | 0.00 | 0.00 | 63 | 1018.0 |
| 20260905203742 | 83 | 292 | 3.5 | 5.2 | 0.00 | 0.00 | 0.00 | 63 | 1017.7 |
| 20260905203343 | 83 | 248 | 3.5 | 3.5 | 0.00 | 0.00 | 0.00 | 63 | 1017.9 |
| 20260905203143 | 83 | 270 | 2.6 | 3.5 | 0.00 | 0.00 | 0.00 | 63 | 1017.8 |
| 20260905202942 | 83 | 270 | 1.7 | 3.5 | 0.00 | 0.00 | 0.00 | 63 | 1017.9 |
| 20260905202743 | 83 | 270 | 1.7 | 1.7 | 0.00 | 0.00 | 0.00 | 63 | 1017.7 |
| 20260905202549 | 83 | 270 | 1.7 | 1.7 | 0.00 | 0.00 | 0.00 | 62 | 1017.8 |
| 20260905202344 | 83 | 292 | 1.7 | 3.5 | 0.00 | 0.00 | 0.00 | 62 | 1017.7 |
| 20260905202143 | 83 | 270 | 2.6 | 3.5 | 0.00 | 0.00 | 0.00 | 62 | 1017.8 |
| 20260905201943 | 83 | 270 | 1.7 | 3.5 | 0.00 | 0.00 | 0.00 | 63 | 1017.7 |
| 20260905201743 | 83 | 248 | 0.9 | 1.7 | 0.00 | 0.00 | 0.00 | 62 | 1017.7 |
| 20260905201143 | 83 | 270 | 0.9 | 1.7 | 0.00 | 0.00 | 0.00 | 62 | 1017.8 |
| 20260905200944 | 83 | 248 | 1.7 | 1.7 | 0.00 | 0.00 | 0.00 | 61 | 1017.7 |
| 20260905200741 | 83 | 270 | 0.9 | 1.7 | 0.00 | 0.00 | 0.00 | 61 | 1018.0 |
| 20260905200545 | 83 | 248 | 1.7 | 1.7 | 0.00 | 0.00 | 0.00 | 60 | 1017.9 |
| 20260905200342 | 83 | 225 | 1.7 | 1.7 | 0.00 | 0.00 | 0.00 | 60 | 1017.7 |
| 20260905200142 | 84 | 248 | 1.7 | 1.7 | 0.00 | 0.00 | 0.00 | 59 | 1018.0 |
| 20260905195942 | 84 | 270 | 1.7 | 1.7 | 0.00 | 0.00 | 0.00 | 58 | 1017.9 |
| 20260905195744 | 83 | 270 | 1.7 | 1.7 | 0.00 | 0.00 | 0.00 | 58 | 1018.0 |
| 20260905195549 | 83 | 270 | 1.7 | 3.5 | 0.00 | 0.00 | 0.00 | 57 | 1017.9 |
| 20260905195142 | 83 | 270 | 3.5 | 3.5 | 0.00 | 0.00 | 0.00 | 56 | 1017.8 |
| 20260905194943 | 83 | 248 | 2.6 | 3.5 | 0.00 | 0.00 | 0.00 | 55 | 1018.0 |
| 20260905194743 | 83 | 270 | 2.6 | 3.5 | 0.00 | 0.00 | 0.00 | 54 | 1018.0 |
| 20260905194341 | 83 | 248 | 1.7 | 3.5 | 0.00 | 0.00 | 0.00 | 51 | 1017.9 |
| 20260905194143 | 82 | 270 | 2.6 | 3.5 | 0.00 | 0.00 | 0.00 | 49 | 1017.8 |
| 20260905193743 | 82 | 292 | 1.7 | 1.7 | 0.00 | 0.00 | 0.00 | 44 | 1017.9 |
| 20260905193545 | 83 | 292 | 1.7 | 3.5 | 0.00 | 0.00 | 0.00 | 43 | 1018.0 |
| 20260905193342 | 83 | 270 | 0.9 | 1.7 | 0.00 | 0.00 | 0.00 | 42 | 1018.0 |
| 20260905193141 | 83 | 270 | 1.7 | 1.7 | 0.00 | 0.00 | 0.00 | 41 | 1017.9 |
| 20260905192941 | 83 | 270 | 2.6 | 3.5 | 0.00 | 0.00 | 0.00 | 42 | 1017.9 |
| 20260905192743 | 83 | 270 | 1.7 | 1.7 | 0.00 | 0.00 | 0.00 | 42 | 1017.8 |
| 20260905192548 | 83 | 292 | 1.7 | 1.7 | 0.00 | 0.00 | 0.00 | 42 | 1017.9 |
| 20260905192143 | 82 | 270 | 1.7 | 3.5 | 0.00 | 0.00 | 0.00 | 41 | 1017.9 |
| 20260905191941 | 82 | 248 | 1.7 | 3.5 | 0.00 | 0.00 | 0.00 | 42 | 1017.8 |
| 20260905191548 | 82 | 270 | 2.6 | 3.5 | 0.00 | 0.00 | 0.00 | 44 | 1017.8 |
| 20260905191342 | 82 | 270 | 1.7 | 3.5 | 0.00 | 0.00 | 0.00 | 46 | 1017.9 |
| 20260905191151 | 81 | 270 | 1.7 | 1.7 | 0.00 | 0.00 | 0.00 | 47 | 1017.8 |
| 20260905190943 | 81 | 270 | 1.7 | 3.5 | 0.00 | 0.00 | 0.00 | 47 | 1017.7 |
| 20260905190742 | 81 | 270 | 2.6 | 3.5 | 0.00 | 0.00 | 0.00 | 49 | 1017.8 |
| 20260905190546 | 80 | 248 | 1.7 | 3.5 | 0.00 | 0.00 | 0.00 | 50 | 1017.7 |
| 20260905190144 | 80 | 270 | 1.7 | 3.5 | 0.00 | 0.00 | 0.00 | 53 | 1017.8 |
| 20260905185941 | 80 | 225 | 1.7 | 3.5 | 0.00 | 0.00 | 0.00 | 51 | 1017.5 |
| 20260905185342 | 80 | 225 | 0.0 | 1.7 | 0.00 | 0.00 | 0.00 | 52 | 1017.7 |
| 20260905185143 | 80 | 225 | 0.0 | 1.7 | 0.00 | 0.00 | 0.00 | 53 | 1017.7 |
| 20260905184942 | 80 | 248 | 0.0 | 0.0 | 0.00 | 0.00 | 0.00 | 52 | 1017.6 |
| 20260905184742 | 81 | 248 | 0.0 | 0.0 | 0.00 | 0.00 | 0.00 | 52 | 1017.8 |
| 20260905184548 | 81 | 248 | 0.0 | 0.0 | 0.00 | 0.00 | 0.00 | 52 | 1017.8 |
| 20260905184344 | 81 | 225 | 0.9 | 1.7 | 0.00 | 0.00 | 0.00 | 51 | 1017.5 |
| 20260905184150 | 82 | 270 | 0.9 | 1.7 | 0.00 | 0.00 | 0.00 | 50 | 1017.7 |
| 20260905183944 | 82 | 248 | 0.9 | 1.7 | 0.00 | 0.00 | 0.00 | 50 | 1017.6 |
| 20260905183742 | 82 | 225 | 0.9 | 1.7 | 0.00 | 0.00 | 0.00 | 50 | 1017.5 |
| 20260905183546 | 82 | 225 | 0.9 | 1.7 | 0.00 | 0.00 | 0.00 | 50 | 1017.4 |
| 20260905183343 | 82 | 248 | 1.7 | 1.7 | 0.00 | 0.00 | 0.00 | 49 | 1017.5 |
| 20260905183142 | 82 | 248 | 1.7 | 1.7 | 0.00 | 0.00 | 0.00 | 49 | 1017.4 |
| 20260905182942 | 82 | 225 | 0.0 | 1.7 | 0.00 | 0.00 | 0.00 | 50 | 1017.5 |
| 20260905182741 | 81 | 225 | 1.7 | 1.7 | 0.00 | 0.00 | 0.00 | 50 | 1017.5 |
| 20260905182600 | 81 | 248 | 0.9 | 1.7 | 0.00 | 0.00 | 0.00 | 50 | 1017.5 |
| 20260905182343 | 82 | 248 | 0.9 | 1.7 | 0.00 | 0.00 | 0.00 | 50 | 1017.5 |
| 20260905182142 | 82 | 270 | 0.9 | 1.7 | 0.00 | 0.00 | 0.00 | 49 | 1017.3 |
| 20260905181943 | 82 | 270 | 0.9 | 1.7 | 0.00 | 0.00 | 0.00 | 49 | 1017.5 |
| 20260905181744 | 82 | 270 | 0.9 | 1.7 | 0.00 | 0.00 | 0.00 | 48 | 1017.3 |
| 20260905181548 | 82 | 225 | 1.7 | 1.7 | 0.00 | 0.00 | 0.00 | 48 | 1017.4 |
| 20260905181344 | 82 | 225 | 0.9 | 1.7 | 0.00 | 0.00 | 0.00 | 48 | 1017.3 |
| 20260905181141 | 82 | 202 | 1.7 | 3.5 | 0.00 | 0.00 | 0.00 | 48 | 1017.4 |
| 20260905180742 | 82 | 248 | 1.7 | 1.7 | 0.00 | 0.00 | 0.00 | 48 | 1017.3 |
| 20260905180242 | 83 | 248 | 0.9 | 1.7 | 0.00 | 0.00 | 0.00 | 47 | 1017.3 |
| 20260905180050 | 83 | 292 | 0.9 | 1.7 | 0.00 | 0.00 | 0.00 | 47 | 1017.4 |
| 20260905175842 | 83 | 292 | 1.7 | 1.7 | 0.00 | 0.00 | 0.00 | 45 | 1017.2 |
| 20260905175045 | 84 | 180 | 1.7 | 1.7 | 0.00 | 0.00 | 0.00 | 43 | 1017.1 |
| 20260905174842 | 84 | 225 | 0.9 | 1.7 | 0.00 | 0.00 | 0.00 | 43 | 1017.1 |
| 20260905174643 | 85 | 248 | 0.9 | 1.7 | 0.00 | 0.00 | 0.00 | 43 | 1016.9 |
| 20260905173643 | 85 | 202 | 1.7 | 3.5 | 0.00 | 0.00 | 0.00 | 43 | 1016.8 |
| 20260905173444 | 85 | 180 | 1.7 | 3.5 | 0.00 | 0.00 | 0.00 | 43 | 1016.8 |
| 20260905173048 | 85 | 225 | 2.6 | 3.5 | 0.00 | 0.00 | 0.00 | 44 | 1016.7 |
| 20260905172843 | 85 | 180 | 2.6 | 6.1 | 0.00 | 0.00 | 0.00 | 44 | 1016.8 |
| 20260905172643 | 85 | 270 | 2.6 | 3.5 | 0.00 | 0.00 | 0.00 | 45 | 1016.8 |
| 20260905172443 | 85 | 248 | 1.7 | 3.5 | 0.00 | 0.00 | 0.00 | 45 | 1016.6 |
| 20260905172047 | 86 | 248 | 1.7 | 3.5 | 0.00 | 0.00 | 0.00 | 46 | 1016.7 |
| 20260905171841 | 86 | 180 | 2.6 | 5.2 | 0.00 | 0.00 | 0.00 | 46 | 1016.8 |
| 20260905171642 | 86 | 202 | 2.6 | 3.5 | 0.00 | 0.00 | 0.00 | 46 | 1016.7 |
| 20260905171443 | 86 | 158 | 2.6 | 5.2 | 0.00 | 0.00 | 0.00 | 47 | 1016.7 |
| 20260905171242 | 86 | 225 | 1.7 | 3.5 | 0.00 | 0.00 | 0.00 | 47 | 1016.8 |
| 20260905170842 | 86 | 135 | 2.6 | 3.5 | 0.00 | 0.00 | 0.00 | 47 | 1016.8 |
| 20260905170643 | 86 | 112 | 3.5 | 6.1 | 0.00 | 0.00 | 0.00 | 47 | 1016.7 |
| 20260905170242 | 87 | 158 | 3.5 | 6.1 | 0.00 | 0.00 | 0.00 | 47 | 1016.9 |
| 20260905165842 | 87 | 270 | 2.6 | 5.2 | 0.00 | 0.00 | 0.00 | 47 | 1016.6 |
| 20260905165643 | 87 | 158 | 2.6 | 3.5 | 0.00 | 0.00 | 0.00 | 47 | 1016.7 |
| 20260905165241 | 87 | 180 | 3.5 | 6.1 | 0.00 | 0.00 | 0.00 | 48 | 1016.7 |
| 20260905165045 | 87 | 68 | 3.5 | 5.2 | 0.00 | 0.00 | 0.00 | 48 | 1016.9 |
| 20260905164842 | 87 | 135 | 2.6 | 5.2 | 0.00 | 0.00 | 0.00 | 48 | 1016.7 |
| 20260905164643 | 88 | 225 | 3.5 | 6.1 | 0.00 | 0.00 | 0.00 | 48 | 1016.8 |
| 20260905164441 | 88 | 158 | 2.6 | 3.5 | 0.00 | 0.00 | 0.00 | 48 | 1016.7 |
| 20260905164242 | 88 | 158 | 2.6 | 3.5 | 0.00 | 0.00 | 0.00 | 47 | 1016.8 |
| 20260905164052 | 88 | 158 | 6.1 | 7.8 | 0.00 | 0.00 | 0.00 | 46 | 1016.8 |
| 20260905163840 | 88 | 225 | 2.6 | 3.5 | 0.00 | 0.00 | 0.00 | 46 | 1016.8 |
| 20260905163641 | 88 | 180 | 3.5 | 6.1 | 0.00 | 0.00 | 0.00 | 46 | 1016.7 |
| 20260905163047 | 89 | 225 | 3.5 | 6.1 | 0.00 | 0.00 | 0.00 | 44 | 1016.8 |
| 20260905162842 | 89 | 158 | 3.5 | 3.5 | 0.00 | 0.00 | 0.00 | 44 | 1016.8 |
| 20260905162642 | 89 | 158 | 3.5 | 7.0 | 0.00 | 0.00 | 0.00 | 44 | 1016.7 |
| 20260905162441 | 89 | 158 | 5.2 | 9.6 | 0.00 | 0.00 | 0.00 | 43 | 1016.7 |
| 20260905162242 | 89 | 180 | 3.5 | 7.0 | 0.00 | 0.00 | 0.00 | 42 | 1016.8 |
| 20260905162045 | 89 | 158 | 3.5 | 5.2 | 0.00 | 0.00 | 0.00 | 42 | 1017.0 |
| 20260905161843 | 89 | 112 | 5.2 | 7.0 | 0.00 | 0.00 | 0.00 | 41 | 1016.8 |
| 20260905161641 | 90 | 202 | 5.2 | 7.0 | 0.00 | 0.00 | 0.00 | 41 | 1016.6 |
| 20260905161441 | 90 | 202 | 4.3 | 6.1 | 0.00 | 0.00 | 0.00 | 40 | 1016.7 |
| 20260905161242 | 90 | 135 | 3.5 | 5.2 | 0.00 | 0.00 | 0.00 | 39 | 1016.9 |
| 20260905161049 | 90 | 225 | 3.5 | 5.2 | 0.00 | 0.00 | 0.00 | 39 | 1016.6 |
| 20260905160841 | 90 | 180 | 3.5 | 6.1 | 0.00 | 0.00 | 0.00 | 39 | 1016.9 |
| 20260905160440 | 91 | 202 | 2.6 | 3.5 | 0.00 | 0.00 | 0.00 | 38 | 1016.9 |
| 20260905160241 | 91 | 180 | 3.5 | 6.1 | 0.00 | 0.00 | 0.00 | 37 | 1016.8 |
| 20260905155841 | 91 | 180 | 3.5 | 6.1 | 0.00 | 0.00 | 0.00 | 37 | 1016.8 |
| 20260905155644 | 91 | 158 | 3.5 | 7.0 | 0.00 | 0.00 | 0.00 | 36 | 1016.8 |
| 20260905155441 | 91 | 180 | 5.2 | 7.0 | 0.00 | 0.00 | 0.00 | 35 | 1016.8 |
| 20260905155242 | 91 | 180 | 4.3 | 7.0 | 0.00 | 0.00 | 0.00 | 35 | 1016.8 |
| 20260905155044 | 91 | 180 | 5.2 | 7.0 | 0.00 | 0.00 | 0.00 | 35 | 1017.0 |
| 20260905154641 | 91 | 180 | 5.2 | 7.8 | 0.00 | 0.00 | 0.00 | 34 | 1016.8 |
| 20260905154441 | 92 | 270 | 6.1 | 7.8 | 0.00 | 0.00 | 0.00 | 34 | 1016.9 |
| 20260905154240 | 92 | 158 | 4.3 | 7.8 | 0.00 | 0.00 | 0.00 | 34 | 1017.0 |
| 20260905154047 | 92 | 158 | 4.3 | 7.0 | 0.00 | 0.00 | 0.00 | 34 | 1016.9 |
| 20260905153842 | 92 | 158 | 5.2 | 7.8 | 0.00 | 0.00 | 0.00 | 35 | 1016.9 |
| 20260905153440 | 92 | 180 | 6.1 | 9.6 | 0.00 | 0.00 | 0.00 | 35 | 1016.9 |
| 20260905153241 | 92 | 158 | 3.5 | 7.0 | 0.00 | 0.00 | 0.00 | 35 | 1016.9 |
| 20260905152241 | 92 | 225 | 4.3 | 7.8 | 0.00 | 0.00 | 0.00 | 36 | 1017.0 |
| 20260905152044 | 92 | 158 | 5.2 | 7.8 | 0.00 | 0.00 | 0.00 | 36 | 1016.9 |
| 20260905151842 | 92 | 180 | 5.2 | 7.8 | 0.00 | 0.00 | 0.00 | 36 | 1017.0 |
| 20260905151641 | 92 | 202 | 5.2 | 7.8 | 0.00 | 0.00 | 0.00 | 37 | 1017.0 |
| 20260905151241 | 92 | 202 | 3.5 | 5.2 | 0.00 | 0.00 | 0.00 | 37 | 1017.2 |
| 20260905151051 | 92 | 112 | 2.6 | 3.5 | 0.00 | 0.00 | 0.00 | 37 | 1017.3 |
| 20260905150841 | 92 | 180 | 3.5 | 6.1 | 0.00 | 0.00 | 0.00 | 37 | 1017.0 |
| 20260905150641 | 92 | 180 | 6.1 | 9.6 | 0.00 | 0.00 | 0.00 | 37 | 1017.0 |
| 20260905150242 | 93 | 180 | 3.5 | 7.8 | 0.00 | 0.00 | 0.00 | 36 | 1017.0 |
| 20260905145841 | 93 | 180 | 3.5 | 6.1 | 0.00 | 0.00 | 0.00 | 36 | 1016.9 |
| 20260905145642 | 92 | 135 | 3.5 | 5.2 | 0.00 | 0.00 | 0.00 | 35 | 1016.9 |
| 20260905145442 | 93 | 180 | 5.2 | 7.0 | 0.00 | 0.00 | 0.00 | 35 | 1017.1 |
| 20260905145045 | 93 | 180 | 4.3 | 7.8 | 0.00 | 0.00 | 0.00 | 34 | 1017.2 |
| 20260905144841 | 93 | 180 | 5.2 | 9.6 | 0.00 | 0.00 | 0.00 | 34 | 1016.9 |
| 20260905144441 | 93 | 135 | 4.3 | 6.1 | 0.00 | 0.00 | 0.00 | 35 | 1017.1 |
| 20260905144241 | 93 | 158 | 5.2 | 7.8 | 0.00 | 0.00 | 0.00 | 34 | 1017.0 |
| 20260905143840 | 93 | 202 | 3.5 | 7.0 | 0.00 | 0.00 | 0.00 | 35 | 1017.0 |
| 20260905143642 | 93 | 180 | 3.5 | 6.1 | 0.00 | 0.00 | 0.00 | 35 | 1017.1 |
| 20260905143443 | 93 | 180 | 3.5 | 6.1 | 0.00 | 0.00 | 0.00 | 34 | 1016.9 |
| 20260905143241 | 93 | 158 | 3.5 | 7.0 | 0.00 | 0.00 | 0.00 | 34 | 1016.9 |
| 20260905142842 | 94 | 180 | 5.2 | 7.8 | 0.00 | 0.00 | 0.00 | 33 | 1017.1 |
| 20260905142649 | 94 | 135 | 3.5 | 5.2 | 0.00 | 0.00 | 0.00 | 34 | 1016.9 |
| 20260905142442 | 94 | 112 | 3.5 | 5.2 | 0.00 | 0.00 | 0.00 | 35 | 1017.0 |
| 20260905142241 | 94 | 135 | 3.5 | 5.2 | 0.00 | 0.00 | 0.00 | 34 | 1017.2 |
| 20260905142046 | 94 | 248 | 7.0 | 9.6 | 0.00 | 0.00 | 0.00 | 34 | 1017.1 |
| 20260905141645 | 93 | 158 | 6.1 | 9.6 | 0.00 | 0.00 | 0.00 | 35 | 1017.1 |
| 20260905141442 | 93 | 158 | 4.3 | 7.0 | 0.00 | 0.00 | 0.00 | 34 | 1017.1 |
| 20260905141241 | 94 | 135 | 7.0 | 9.6 | 0.00 | 0.00 | 0.00 | 35 | 1017.1 |
| 20260905141052 | 94 | 202 | 5.2 | 7.0 | 0.00 | 0.00 | 0.00 | 34 | 1017.3 |
| 20260905140642 | 94 | 158 | 3.5 | 5.2 | 0.00 | 0.00 | 0.00 | 34 | 1017.3 |
| 20260905140442 | 93 | 135 | 3.5 | 6.1 | 0.00 | 0.00 | 0.00 | 34 | 1017.3 |
| 20260905140241 | 93 | 180 | 4.3 | 7.8 | 0.00 | 0.00 | 0.00 | 33 | 1017.3 |
| 20260905140049 | 94 | 180 | 5.2 | 7.0 | 0.00 | 0.00 | 0.00 | 33 | 1017.3 |
| 20260905135842 | 94 | 180 | 6.1 | 7.8 | 0.00 | 0.00 | 0.00 | 32 | 1017.3 |
| 20260905135642 | 94 | 135 | 3.5 | 6.1 | 0.00 | 0.00 | 0.00 | 33 | 1017.1 |
| 20260905135241 | 94 | 180 | 6.1 | 7.8 | 0.00 | 0.00 | 0.00 | 34 | 1017.2 |
| 20260905135049 | 94 | 158 | 3.5 | 6.1 | 0.00 | 0.00 | 0.00 | 34 | 1017.2 |
| 20260905134841 | 94 | 180 | 3.5 | 6.1 | 0.00 | 0.00 | 0.00 | 34 | 1017.2 |
| 20260905134642 | 94 | 202 | 4.3 | 7.0 | 0.00 | 0.00 | 0.00 | 33 | 1017.2 |
| 20260905134241 | 94 | 158 | 4.3 | 7.0 | 0.00 | 0.00 | 0.00 | 33 | 1017.5 |
| 20260905134050 | 94 | 158 | 3.5 | 6.1 | 0.00 | 0.00 | 0.00 | 33 | 1017.4 |
| 20260905133843 | 94 | 135 | 3.5 | 6.1 | 0.00 | 0.00 | 0.00 | 36 | 1017.2 |
| 20260905133641 | 94 | 112 | 3.5 | 5.2 | 0.00 | 0.00 | 0.00 | 35 | 1017.3 |
| 20260905133441 | 94 | 180 | 3.5 | 5.2 | 0.00 | 0.00 | 0.00 | 33 | 1017.4 |
| 20260905133054 | 94 | 135 | 3.5 | 7.0 | 0.00 | 0.00 | 0.00 | 34 | 1017.5 |
| 20260905132643 | 94 | 112 | 4.3 | 7.0 | 0.00 | 0.00 | 0.00 | 33 | 1017.3 |
| 20260905132441 | 94 | 135 | 3.5 | 6.1 | 0.00 | 0.00 | 0.00 | 33 | 1017.4 |
| 20260905132243 | 94 | 180 | 2.6 | 5.2 | 0.00 | 0.00 | 0.00 | 33 | 1017.4 |
| 20260905131841 | 94 | 135 | 3.5 | 6.1 | 0.00 | 0.00 | 0.00 | 33 | 1017.6 |
| 20260905131642 | 94 | 158 | 4.3 | 7.0 | 0.00 | 0.00 | 0.00 | 32 | 1017.5 |
| 20260905131440 | 94 | 112 | 3.5 | 5.2 | 0.00 | 0.00 | 0.00 | 31 | 1017.4 |
| 20260905131054 | 94 | 135 | 4.3 | 7.8 | 0.00 | 0.00 | 0.00 | 29 | 1017.7 |
| 20260905130841 | 94 | 112 | 5.2 | 9.6 | 0.00 | 0.00 | 0.00 | 33 | 1017.6 |
| 20260905130641 | 94 | 112 | 3.5 | 9.6 | 0.00 | 0.00 | 0.00 | 31 | 1017.5 |
| 20260905130441 | 94 | 158 | 5.2 | 7.8 | 0.00 | 0.00 | 0.00 | 31 | 1017.4 |
| 20260905130242 | 95 | 158 | 4.3 | 7.0 | 0.00 | 0.00 | 0.00 | 30 | 1017.6 |
| 20260905125843 | 95 | 135 | 3.5 | 6.1 | 0.00 | 0.00 | 0.00 | 29 | 1017.8 |
| 20260905125642 | 95 | 112 | 3.5 | 5.2 | 0.00 | 0.00 | 0.00 | 30 | 1017.6 |
| 20260905125441 | 94 | 180 | 5.2 | 9.6 | 0.00 | 0.00 | 0.00 | 30 | 1017.7 |
| 20260905125241 | 94 | 158 | 5.2 | 9.6 | 0.00 | 0.00 | 0.00 | 30 | 1017.4 |
| 20260905125045 | 95 | 158 | 5.2 | 7.0 | 0.00 | 0.00 | 0.00 | 30 | 1017.8 |
| 20260905124841 | 95 | 180 | 3.5 | 6.1 | 0.00 | 0.00 | 0.00 | 32 | 1017.7 |
| 20260905124642 | 95 | 112 | 3.5 | 6.1 | 0.00 | 0.00 | 0.00 | 29 | 1017.5 |
| 20260905124441 | 95 | 112 | 4.3 | 6.1 | 0.00 | 0.00 | 0.00 | 30 | 1017.7 |
| 20260905124242 | 95 | 158 | 5.2 | 7.8 | 0.00 | 0.00 | 0.00 | 30 | 1017.8 |
| 20260905124055 | 95 | 158 | 3.5 | 6.1 | 0.00 | 0.00 | 0.00 | 32 | 1017.7 |
| 20260905123642 | 96 | 112 | 4.3 | 6.1 | 0.00 | 0.00 | 0.00 | 33 | 1017.8 |
| 20260905123441 | 95 | 135 | 3.5 | 5.2 | 0.00 | 0.00 | 0.00 | 33 | 1017.6 |
| 20260905123247 | 95 | 90 | 2.6 | 5.2 | 0.00 | 0.00 | 0.00 | 34 | 1017.7 |
| 20260905123048 | 96 | 180 | 3.5 | 7.0 | 0.00 | 0.00 | 0.00 | 34 | 1017.8 |
| 20260905122841 | 96 | 158 | 2.6 | 3.5 | 0.00 | 0.00 | 0.00 | 31 | 1017.8 |
| 20260905122642 | 95 | 158 | 3.5 | 5.2 | 0.00 | 0.00 | 0.00 | 32 | 1018.0 |
| 20260905122441 | 95 | 112 | 3.5 | 7.0 | 0.00 | 0.00 | 0.00 | 34 | 1017.7 |
| 20260905121842 | 96 | 225 | 3.5 | 5.2 | 0.00 | 0.00 | 0.00 | 32 | 1017.9 |
| 20260905121641 | 96 | 180 | 3.5 | 6.1 | 0.00 | 0.00 | 0.00 | 31 | 1018.0 |
| 20260905121444 | 96 | 135 | 3.5 | 7.0 | 0.00 | 0.00 | 0.00 | 30 | 1017.8 |
| 20260905121241 | 96 | 202 | 3.5 | 6.1 | 0.00 | 0.00 | 0.00 | 31 | 1018.0 |
| 20260905121101 | 96 | 112 | 3.5 | 5.2 | 0.00 | 0.00 | 0.00 | 28 | 1017.9 |
| 20260905120841 | 95 | 180 | 3.5 | 5.2 | 0.00 | 0.00 | 0.00 | 29 | 1017.9 |
| 20260905120441 | 95 | 135 | 3.5 | 3.5 | 0.00 | 0.00 | 0.00 | 30 | 1018.0 |
| 20260905120241 | 95 | 68 | 4.3 | 7.8 | 0.00 | 0.00 | 0.00 | 30 | 1018.0 |
| 20260905115841 | 96 | 112 | 2.6 | 3.5 | 0.00 | 0.00 | 0.00 | 29 | 1018.0 |
| 20260905115647 | 96 | 158 | 3.5 | 5.2 | 0.00 | 0.00 | 0.00 | 29 | 1018.0 |
| 20260905115447 | 94 | 135 | 3.5 | 5.2 | 0.00 | 0.00 | 0.00 | 28 | 1018.1 |
| 20260905115242 | 94 | 158 | 3.5 | 5.2 | 0.00 | 0.00 | 0.00 | 29 | 1018.1 |
| 20260905115047 | 96 | 112 | 3.5 | 6.1 | 0.00 | 0.00 | 0.00 | 29 | 1018.1 |
| 20260905114842 | 96 | 90 | 2.6 | 5.2 | 0.00 | 0.00 | 0.00 | 29 | 1018.1 |
| 20260905114645 | 95 | 112 | 3.5 | 5.2 | 0.00 | 0.00 | 0.00 | 29 | 1018.1 |
| 20260905114442 | 95 | 158 | 3.5 | 5.2 | 0.00 | 0.00 | 0.00 | 29 | 1018.2 |
| 20260905114241 | 95 | 135 | 3.5 | 5.2 | 0.00 | 0.00 | 0.00 | 29 | 1018.1 |
| 20260905114049 | 95 | 135 | 3.5 | 6.1 | 0.00 | 0.00 | 0.00 | 30 | 1018.3 |
| 20260905113842 | 96 | 112 | 3.5 | 6.1 | 0.00 | 0.00 | 0.00 | 30 | 1018.1 |
| 20260905113641 | 96 | 202 | 3.5 | 6.1 | 0.00 | 0.00 | 0.00 | 30 | 1018.0 |
| 20260905113442 | 96 | 180 | 2.6 | 5.2 | 0.00 | 0.00 | 0.00 | 30 | 1018.0 |
| 20260905113243 | 96 | 158 | 3.5 | 7.0 | 0.00 | 0.00 | 0.00 | 30 | 1018.1 |
| 20260905113047 | 96 | 112 | 2.6 | 5.2 | 0.00 | 0.00 | 0.00 | 31 | 1018.2 |
| 20260905112441 | 95 | 112 | 3.5 | 7.0 | 0.00 | 0.00 | 0.00 | 31 | 1018.1 |
| 20260905112241 | 96 | 135 | 3.5 | 6.1 | 0.00 | 0.00 | 0.00 | 31 | 1018.1 |
| 20260905112046 | 95 | 112 | 3.5 | 5.2 | 0.00 | 0.00 | 0.00 | 30 | 1018.2 |
| 20260905111842 | 95 | 225 | 3.5 | 6.1 | 0.00 | 0.00 | 0.00 | 31 | 1018.1 |
| 20260905111643 | 95 | 112 | 3.5 | 7.0 | 0.00 | 0.00 | 0.00 | 29 | 1018.1 |
| 20260905111243 | 95 | 112 | 2.6 | 3.5 | 0.00 | 0.00 | 0.00 | 30 | 1018.2 |
| 20260905111057 | 96 | 225 | 3.5 | 5.2 | 0.00 | 0.00 | 0.00 | 28 | 1018.1 |
| 20260905110843 | 95 | 202 | 3.5 | 5.2 | 0.00 | 0.00 | 0.00 | 30 | 1018.1 |
| 20260905110640 | 95 | 135 | 3.5 | 6.1 | 0.00 | 0.00 | 0.00 | 27 | 1018.3 |
| 20260905110442 | 96 | 180 | 1.7 | 3.5 | 0.00 | 0.00 | 0.00 | 30 | 1018.3 |
| 20260905110049 | 95 | 158 | 1.7 | 3.5 | 0.00 | 0.00 | 0.00 | 35 | 1018.2 |
| 20260905105841 | 95 | 135 | 3.5 | 6.1 | 0.00 | 0.00 | 0.00 | 32 | 1018.2 |
| 20260905105441 | 95 | 180 | 3.5 | 7.8 | 0.00 | 0.00 | 0.00 | 34 | 1018.2 |
| 20260905105046 | 95 | 112 | 1.7 | 1.7 | 0.00 | 0.00 | 0.00 | 38 | 1018.2 |
| 20260905104841 | 95 | 112 | 2.6 | 3.5 | 0.00 | 0.00 | 0.00 | 37 | 1018.2 |
| 20260905104641 | 94 | 112 | 2.6 | 5.2 | 0.00 | 0.00 | 0.00 | 38 | 1018.2 |
| 20260905104443 | 95 | 158 | 3.5 | 7.0 | 0.00 | 0.00 | 0.00 | 40 | 1018.1 |
| 20260905104049 | 94 | 158 | 1.7 | 3.5 | 0.00 | 0.00 | 0.00 | 37 | 1018.1 |
| 20260905103841 | 95 | 112 | 3.5 | 5.2 | 0.00 | 0.00 | 0.00 | 33 | 1018.3 |
| 20260905103641 | 95 | 68 | 3.5 | 5.2 | 0.00 | 0.00 | 0.00 | 34 | 1018.4 |
| 20260905103442 | 96 | 202 | 2.6 | 3.5 | 0.00 | 0.00 | 0.00 | 35 | 1018.6 |
| 20260905103241 | 95 | 158 | 3.5 | 3.5 | 0.00 | 0.00 | 0.00 | 35 | 1018.2 |
| 20260905102841 | 94 | 112 | 2.6 | 3.5 | 0.00 | 0.00 | 0.00 | 34 | 1018.3 |
| 20260905102641 | 94 | 112 | 3.5 | 6.1 | 0.00 | 0.00 | 0.00 | 36 | 1018.4 |
| 20260905102441 | 95 | 112 | 2.6 | 3.5 | 0.00 | 0.00 | 0.00 | 36 | 1018.6 |
| 20260905102242 | 95 | 180 | 3.5 | 3.5 | 0.00 | 0.00 | 0.00 | 36 | 1018.6 |
| 20260905102046 | 95 | 180 | 1.7 | 3.5 | 0.00 | 0.00 | 0.00 | 37 | 1018.5 |
| 20260905101841 | 94 | 225 | 3.5 | 6.1 | 0.00 | 0.00 | 0.00 | 35 | 1018.6 |
| 20260905101641 | 94 | 158 | 2.6 | 3.5 | 0.00 | 0.00 | 0.00 | 37 | 1018.6 |
| 20260905101442 | 96 | 112 | 3.5 | 5.2 | 0.00 | 0.00 | 0.00 | 36 | 1018.5 |
| 20260905101242 | 97 | 158 | 1.7 | 3.5 | 0.00 | 0.00 | 0.00 | 36 | 1018.5 |
| 20260905100441 | 96 | 248 | 1.7 | 1.7 | 0.00 | 0.00 | 0.00 | 31 | 1018.4 |
| 20260905095842 | 94 | 225 | 1.7 | 3.5 | 0.00 | 0.00 | 0.00 | 30 | 1018.8 |
| 20260905095440 | 95 | 248 | 3.5 | 5.2 | 0.00 | 0.00 | 0.00 | 28 | 1018.7 |
| 20260905095047 | 94 | 135 | 1.7 | 1.7 | 0.00 | 0.00 | 0.00 | 29 | 1018.8 |
| 20260905094841 | 94 | 338 | 1.7 | 1.7 | 0.00 | 0.00 | 0.00 | 28 | 1018.8 |
| 20260905094642 | 96 | 270 | 1.7 | 3.5 | 0.00 | 0.00 | 0.00 | 26 | 1019.0 |
| 20260905094442 | 96 | 248 | 1.7 | 3.5 | 0.00 | 0.00 | 0.00 | 26 | 1018.6 |
| 20260905094244 | 96 | 248 | 1.7 | 3.5 | 0.00 | 0.00 | 0.00 | 26 | 1018.7 |
| 20260905094053 | 96 | 270 | 0.9 | 1.7 | 0.00 | 0.00 | 0.00 | 27 | 1018.6 |
| 20260905093841 | 95 | 225 | 0.9 | 1.7 | 0.00 | 0.00 | 0.00 | 28 | 1018.9 |
| 20260905093641 | 95 | 225 | 1.7 | 3.5 | 0.00 | 0.00 | 0.00 | 28 | 1018.8 |
| 20260905093441 | 96 | 112 | 2.6 | 3.5 | 0.00 | 0.00 | 0.00 | 29 | 1019.1 |
| 20260905093241 | 96 | 225 | 1.7 | 6.1 | 0.00 | 0.00 | 0.00 | 27 | 1019.0 |
| 20260905093049 | 95 | 248 | 0.9 | 1.7 | 0.00 | 0.00 | 0.00 | 28 | 1018.9 |
| 20260905092642 | 95 | 225 | 2.6 | 3.5 | 0.00 | 0.00 | 0.00 | 27 | 1019.0 |
| 20260905092441 | 95 | 225 | 1.7 | 3.5 | 0.00 | 0.00 | 0.00 | 28 | 1018.9 |
| 20260905092242 | 94 | 248 | 1.7 | 3.5 | 0.00 | 0.00 | 0.00 | 29 | 1018.9 |
| 20260905092045 | 94 | 270 | 1.7 | 3.5 | 0.00 | 0.00 | 0.00 | 30 | 1019.0 |
| 20260905091841 | 95 | 270 | 3.5 | 5.2 | 0.00 | 0.00 | 0.00 | 31 | 1019.1 |
| 20260905091641 | 95 | 270 | 1.7 | 1.7 | 0.00 | 0.00 | 0.00 | 28 | 1019.0 |
| 20260905091443 | 95 | 202 | 2.6 | 3.5 | 0.00 | 0.00 | 0.00 | 29 | 1019.1 |
| 20260905091241 | 94 | 135 | 1.7 | 3.5 | 0.00 | 0.00 | 0.00 | 29 | 1019.1 |
| 20260905091050 | 95 | 292 | 1.7 | 3.5 | 0.00 | 0.00 | 0.00 | 28 | 1019.3 |
| 20260905090842 | 95 | 270 | 1.7 | 3.5 | 0.00 | 0.00 | 0.00 | 27 | 1019.1 |
| 20260905090442 | 94 | 248 | 1.7 | 1.7 | 0.00 | 0.00 | 0.00 | 30 | 1019.2 |
| 20260905090241 | 94 | 248 | 1.7 | 3.5 | 0.00 | 0.00 | 0.00 | 29 | 1019.0 |
| 20260905090050 | 94 | 270 | 1.7 | 1.7 | 0.00 | 0.00 | 0.00 | 31 | 1019.1 |
| 20260905085841 | 94 | 90 | 1.7 | 1.7 | 0.00 | 0.00 | 0.00 | 31 | 1019.0 |
| 20260905085643 | 94 | 248 | 0.9 | 1.7 | 0.00 | 0.00 | 0.00 | 29 | 1019.2 |
| 20260905085440 | 94 | 248 | 1.7 | 3.5 | 0.00 | 0.00 | 0.00 | 30 | 1019.2 |
| 20260905085047 | 92 | 292 | 1.7 | 3.5 | 0.00 | 0.00 | 0.00 | 32 | 1019.0 |
| 20260905084842 | 92 | 292 | 1.7 | 1.7 | 0.00 | 0.00 | 0.00 | 30 | 1019.1 |
| 20260905084641 | 91 | 270 | 1.7 | 3.5 | 0.00 | 0.00 | 0.00 | 31 | 1019.3 |
| 20260905084440 | 91 | 292 | 0.9 | 1.7 | 0.00 | 0.00 | 0.00 | 33 | 1019.3 |
| 20260905084240 | 90 | 270 | 1.7 | 3.5 | 0.00 | 0.00 | 0.00 | 35 | 1019.1 |
| 20260905083641 | 90 | 248 | 3.5 | 5.2 | 0.00 | 0.00 | 0.00 | 37 | 1019.2 |
| 20260905083443 | 90 | 270 | 1.7 | 3.5 | 0.00 | 0.00 | 0.00 | 37 | 1019.2 |
| 20260905083240 | 90 | 292 | 1.7 | 3.5 | 0.00 | 0.00 | 0.00 | 38 | 1019.0 |
| 20260905082841 | 89 | 248 | 1.7 | 1.7 | 0.00 | 0.00 | 0.00 | 41 | 1019.0 |
| 20260905082641 | 89 | 270 | 2.6 | 3.5 | 0.00 | 0.00 | 0.00 | 41 | 1019.0 |
| 20260905082442 | 89 | 248 | 3.5 | 3.5 | 0.00 | 0.00 | 0.00 | 41 | 1019.1 |
| 20260905082046 | 89 | 270 | 2.6 | 3.5 | 0.00 | 0.00 | 0.00 | 41 | 1019.3 |
| 20260905081841 | 89 | 292 | 1.7 | 3.5 | 0.00 | 0.00 | 0.00 | 42 | 1019.2 |
| 20260905081643 | 89 | 270 | 2.6 | 3.5 | 0.00 | 0.00 | 0.00 | 43 | 1019.2 |
| 20260905081442 | 89 | 315 | 3.5 | 5.2 | 0.00 | 0.00 | 0.00 | 42 | 1019.5 |
| 20260905081241 | 88 | 270 | 2.6 | 3.5 | 0.00 | 0.00 | 0.00 | 43 | 1019.2 |
| 20260905081050 | 88 | 270 | 2.6 | 3.5 | 0.00 | 0.00 | 0.00 | 42 | 1019.1 |
| 20260905080841 | 87 | 292 | 2.6 | 3.5 | 0.00 | 0.00 | 0.00 | 43 | 1019.3 |
| 20260905080641 | 87 | 292 | 3.5 | 5.2 | 0.00 | 0.00 | 0.00 | 43 | 1019.2 |
| 20260905080443 | 87 | 270 | 3.5 | 3.5 | 0.00 | 0.00 | 0.00 | 43 | 1018.9 |
| 20260905080051 | 86 | 248 | 2.6 | 3.5 | 0.00 | 0.00 | 0.00 | 44 | 1019.0 |
| 20260905075641 | 86 | 225 | 3.5 | 5.2 | 0.00 | 0.00 | 0.00 | 44 | 1019.0 |
| 20260905075443 | 87 | 292 | 4.3 | 5.2 | 0.00 | 0.00 | 0.00 | 43 | 1018.9 |
| 20260905075241 | 86 | 248 | 2.6 | 3.5 | 0.00 | 0.00 | 0.00 | 44 | 1019.1 |
| 20260905074642 | 85 | 292 | 3.5 | 5.2 | 0.00 | 0.00 | 0.00 | 45 | 1018.9 |
| 20260905074441 | 85 | 292 | 3.5 | 3.5 | 0.00 | 0.00 | 0.00 | 45 | 1018.9 |
| 20260905074243 | 85 | 315 | 3.5 | 3.5 | 0.00 | 0.00 | 0.00 | 46 | 1019.1 |
| 20260905074050 | 85 | 292 | 3.5 | 5.2 | 0.00 | 0.00 | 0.00 | 45 | 1018.9 |
| 20260905073841 | 84 | 270 | 3.5 | 6.1 | 0.00 | 0.00 | 0.00 | 44 | 1019.0 |
| 20260905073641 | 84 | 248 | 3.5 | 5.2 | 0.00 | 0.00 | 0.00 | 46 | 1018.8 |
| 20260905073442 | 84 | 338 | 3.5 | 5.2 | 0.00 | 0.00 | 0.00 | 46 | 1019.0 |
| 20260905072842 | 84 | 292 | 4.3 | 7.0 | 0.00 | 0.00 | 0.00 | 46 | 1019.0 |
| 20260905072642 | 83 | 270 | 3.5 | 3.5 | 0.00 | 0.00 | 0.00 | 47 | 1019.0 |
| 20260905072046 | 83 | 292 | 3.5 | 5.2 | 0.00 | 0.00 | 0.00 | 48 | 1018.9 |
| 20260905071842 | 83 | 292 | 3.5 | 5.2 | 0.00 | 0.00 | 0.00 | 48 | 1018.8 |
| 20260905071645 | 83 | 270 | 3.5 | 5.2 | 0.00 | 0.00 | 0.00 | 49 | 1018.9 |
| 20260905071441 | 82 | 270 | 4.3 | 6.1 | 0.00 | 0.00 | 0.00 | 48 | 1018.9 |
| 20260905071242 | 82 | 270 | 4.3 | 7.0 | 0.00 | 0.00 | 0.00 | 49 | 1018.9 |
| 20260905071050 | 82 | 315 | 5.2 | 7.8 | 0.00 | 0.00 | 0.00 | 49 | 1018.9 |
| 20260905070642 | 82 | 270 | 5.2 | 7.8 | 0.00 | 0.00 | 0.00 | 50 | 1018.8 |
| 20260905070441 | 81 | 270 | 3.5 | 7.0 | 0.00 | 0.00 | 0.00 | 50 | 1018.9 |
| 20260905070242 | 81 | 292 | 6.1 | 9.6 | 0.00 | 0.00 | 0.00 | 50 | 1018.8 |
| 20260905070049 | 81 | 270 | 4.3 | 7.0 | 0.00 | 0.00 | 0.00 | 50 | 1019.1 |
| 20260905065841 | 81 | 248 | 5.2 | 7.0 | 0.00 | 0.00 | 0.00 | 50 | 1018.9 |
| 20260905065642 | 81 | 248 | 4.3 | 7.0 | 0.00 | 0.00 | 0.00 | 50 | 1018.9 |
| 20260905065441 | 81 | 270 | 6.1 | 7.8 | 0.00 | 0.00 | 0.00 | 50 | 1018.9 |